• In Belarus
  • List of Countries
  • For 7 days
  • Water Temperature
  • Satellite Maps
  • Weather Map
  • Weather Widgets
  • user-avatar
    Login

    Hourly Weather Ignatovo 2-e

    Today, 15 November, Thursday

    Time Temperature Precipitation Wind Pressure Humidity
    00:00 -4°C° 0 mm 3 mps 758 mmHg 76%
    01:00 -4°C° 0 mm 3 mps 758 mmHg 78%
    02:00 -4°C° 0 mm 3 mps 759 mmHg 79%
    03:00 -3°C° 0 mm 2 mps 759 mmHg 80%
    04:00 -3°C° 0 mm 2 mps 759 mmHg 80%
    05:00 -3°C° 0 mm 2 mps 760 mmHg 81%
    06:00 -3°C° 0 mm 2 mps 760 mmHg 81%
    07:00 -3°C° 0 mm 2 mps 761 mmHg 79%
    08:00 -3°C° 0 mm 2 mps 761 mmHg 77%
    09:00 -2°C° 0 mm 2 mps 762 mmHg 75%
    10:00 -2°C° 0 mm 2 mps 762 mmHg 71%
    11:00 -1°C° 0 mm 2 mps 763 mmHg 68%
    12:00 -1°C° 0 mm 2 mps 763 mmHg 64%
    13:00 -1°C° 0 mm 2 mps 763 mmHg 64%
    14:00 -1°C° 0 mm 2 mps 764 mmHg 64%
    15:00 -1°C° 0 mm 2 mps 764 mmHg 64%
    16:00 -1°C° 0 mm 2 mps 764 mmHg 67%
    17:00 -2°C° 0 mm 2 mps 765 mmHg 69%
    18:00 -3°C° 0 mm 2 mps 765 mmHg 71%
    19:00 -3°C° 0 mm 2 mps 765 mmHg 71%
    20:00 -3°C° 0 mm 2 mps 766 mmHg 71%
    21:00 -3°C° 0 mm 2 mps 766 mmHg 71%
    22:00 -3°C° 0 mm 2 mps 766 mmHg 72%
    23:00 -3°C° 0 mm 2 mps 767 mmHg 72%

    Tomorrow, 16 November, Friday

    Time Temperature Precipitation Wind Pressure Humidity
    00:00 -3°C° 0 mm 2 mps 767 mmHg 73%
    01:00 -3°C° 0 mm 2 mps 767 mmHg 73%
    02:00 -3°C° 0 mm 2 mps 767 mmHg 74%
    03:00 -3°C° 0 mm 2 mps 768 mmHg 75%
    04:00 -3°C° 0 mm 2 mps 768 mmHg 76%
    05:00 -3°C° 0 mm 2 mps 768 mmHg 77%
    06:00 -3°C° 0 mm 2 mps 768 mmHg 78%
    07:00 -3°C° 0 mm 2 mps 768 mmHg 79%
    08:00 -3°C° 0 mm 2 mps 768 mmHg 80%
    09:00 -3°C° 0 mm 2 mps 769 mmHg 81%
    10:00 -2°C° 0 mm 2 mps 769 mmHg 78%
    11:00 -2°C° 0 mm 2 mps 769 mmHg 75%
    12:00 -1°C° 0 mm 2 mps 769 mmHg 72%
    13:00 -1°C° 0 mm 2 mps 769 mmHg 73%
    14:00 -1°C° 0 mm 2 mps 769 mmHg 74%
    15:00 -1°C° 0 mm 2 mps 769 mmHg 75%
    16:00 -1°C° 0 mm 2 mps 768 mmHg 78%
    17:00 -2°C° 0 mm 2 mps 768 mmHg 82%
    18:00 -2°C° 0 mm 3 mps 768 mmHg 85%
    19:00 -2°C° 0 mm 3 mps 768 mmHg 87%
    20:00 -2°C° 0 mm 3 mps 768 mmHg 88%
    21:00 -2°C° 0 mm 3 mps 768 mmHg 89%
    22:00 -2°C° 0 mm 3 mps 767 mmHg 90%
    23:00 -2°C° 0 mm 3 mps 767 mmHg 90%

    Day after tomorrow, 17 November, Saturday

    Time Temperature Precipitation Wind Pressure Humidity
    00:00 -2°C° 0 mm 3 mps 767 mmHg 91%
    01:00 -2°C° 0 mm 3 mps 767 mmHg 90%
    02:00 -2°C° 0 mm 3 mps 766 mmHg 90%
    03:00 -2°C° 0 mm 3 mps 766 mmHg 89%
    04:00 -2°C° 0 mm 4 mps 765 mmHg 89%
    05:00 -2°C° 0 mm 4 mps 765 mmHg 88%
    06:00 -2°C° 0 mm 4 mps 764 mmHg 88%
    07:00 -2°C° 0 mm 4 mps 764 mmHg 88%
    08:00 -2°C° 0 mm 4 mps 763 mmHg 88%
    09:00 -2°C° 0 mm 4 mps 763 mmHg 88%
    10:00 -1°C° 0.2 mm 4 mps 762 mmHg 87%
    11:00 -1°C° 0.2 mm 4 mps 761 mmHg 87%
    12:00 -1°C° 0.2 mm 4 mps 761 mmHg 87%
    13:00 -1°C° 0.5 mm 4 mps 760 mmHg 87%
    14:00 -1°C° 0.5 mm 4 mps 759 mmHg 88%
    15:00 -1°C° 0.5 mm 4 mps 759 mmHg 89%
    16:00 -1°C° 0.4 mm 4 mps 758 mmHg 89%
    17:00 -1°C° 0.4 mm 5 mps 757 mmHg 90%
    18:00 -1°C° 0.4 mm 5 mps 756 mmHg 90%
    19:00 -1°C° 0.3 mm 5 mps 755 mmHg 91%
    20:00 -1°C° 0.3 mm 5 mps 755 mmHg 91%
    21:00 -1°C° 0.3 mm 4 mps 754 mmHg 92%
    22:00 -1°C° 0.2 mm 4 mps 753 mmHg 92%
    23:00 -1°C° 0.2 mm 4 mps 753 mmHg 93%

    18 November, Sunday

    Time Temperature Precipitation Wind Pressure Humidity
    00:00 0°C° 0.2 mm 3 mps 752 mmHg 94%
    01:00 0°C° 0.1 mm 3 mps 752 mmHg 95%
    02:00 0°C° 0.1 mm 3 mps 751 mmHg 95%
    03:00 0°C° 0.1 mm 3 mps 751 mmHg 96%
    04:00 0°C° 0.2 mm 3 mps 750 mmHg 96%
    05:00 +1°C° 0.2 mm 2 mps 750 mmHg 97%
    06:00 +1°C° 0.2 mm 2 mps 749 mmHg 97%
    07:00 +1°C° 0.1 mm 2 mps 750 mmHg 97%
    08:00 +2°C° 0.1 mm 1 mps 750 mmHg 97%
    09:00 +2°C° 0.1 mm 1 mps 750 mmHg 98%
    10:00 +2°C° 0.1 mm 1 mps 750 mmHg 97%
    11:00 +2°C° 0.1 mm 1 mps 751 mmHg 97%
    12:00 +3°C° 0.1 mm 1 mps 751 mmHg 97%
    13:00 +3°C° 0.2 mm 1 mps 752 mmHg 97%
    14:00 +3°C° 0.2 mm 1 mps 752 mmHg 97%
    15:00 +2°C° 0.2 mm 1 mps 753 mmHg 97%
    16:00 +2°C° 0.2 mm 1 mps 753 mmHg 97%
    17:00 +2°C° 0.2 mm 1 mps 753 mmHg 97%
    18:00 +1°C° 0.2 mm 2 mps 754 mmHg 97%
    19:00 +1°C° 0.2 mm 2 mps 754 mmHg 97%
    20:00 +1°C° 0.2 mm 2 mps 754 mmHg 97%
    21:00 -1°C° 0.2 mm 2 mps 755 mmHg 97%
    22:00 -1°C° 0.1 mm 2 mps 755 mmHg 96%
    23:00 -1°C° 0.1 mm 2 mps 756 mmHg 96%

    19 November, Monday

    Time Temperature Precipitation Wind Pressure Humidity
    00:00 -1°C° 0.1 mm 2 mps 756 mmHg 96%
    01:00 -1°C° 0.1 mm 2 mps 757 mmHg 96%
    02:00 -1°C° 0.1 mm 2 mps 757 mmHg 96%
    03:00 -1°C° 0.1 mm 2 mps 757 mmHg 96%
    04:00 -1°C° 0.1 mm 3 mps 758 mmHg 96%
    05:00 -1°C° 0.1 mm 3 mps 758 mmHg 95%
    06:00 -1°C° 0.1 mm 3 mps 758 mmHg 95%
    07:00 -1°C° 0.1 mm 3 mps 759 mmHg 95%
    08:00 -1°C° 0.1 mm 3 mps 760 mmHg 95%
    09:00 0°C° 0.1 mm 3 mps 760 mmHg 95%
    10:00 0°C° 0.1 mm 3 mps 761 mmHg 94%
    11:00 0°C° 0.1 mm 3 mps 761 mmHg 94%
    12:00 0°C° 0.1 mm 3 mps 762 mmHg 94%
    13:00 0°C° 0.1 mm 3 mps 762 mmHg 94%
    14:00 0°C° 0.1 mm 3 mps 762 mmHg 94%
    15:00 +1°C° 0.1 mm 2 mps 763 mmHg 94%
    16:00 +1°C° 0 mm 2 mps 763 mmHg 94%
    17:00 +1°C° 0 mm 2 mps 763 mmHg 95%
    18:00 +1°C° 0 mm 2 mps 763 mmHg 95%
    19:00 -1°C° 0 mm 2 mps 764 mmHg 96%
    20:00 -1°C° 0 mm 2 mps 764 mmHg 96%
    21:00 -1°C° 0 mm 2 mps 764 mmHg 96%
    22:00 +1°C° 0 mm 1 mps 764 mmHg 96%
    23:00 0°C° 0 mm 1 mps 764 mmHg 96%

    20 November, Tuesday

    Time Temperature Precipitation Wind Pressure Humidity
    00:00 0°C° 0 mm 1 mps 764 mmHg 96%
    01:00 0°C° 0 mm 1 mps 764 mmHg 96%
    02:00 -1°C° 0 mm 1 mps 764 mmHg 96%
    03:00 -1°C° 0 mm 1 mps 764 mmHg 96%
    04:00 -1°C° 0 mm 1 mps 764 mmHg 96%
    05:00 -1°C° 0 mm 1 mps 764 mmHg 96%
    06:00 -1°C° 0 mm 1 mps 764 mmHg 96%
    07:00 -1°C° 0 mm 1 mps 763 mmHg 96%
    08:00 -1°C° 0 mm 1 mps 763 mmHg 96%
    09:00 -1°C° 0 mm 1 mps 763 mmHg 96%
    10:00 -1°C° 0 mm 1 mps 763 mmHg 94%
    11:00 0°C° 0 mm 1 mps 763 mmHg 92%
    12:00 +1°C° 0 mm 1 mps 763 mmHg 90%
    13:00 0°C° 0 mm 1 mps 762 mmHg 91%
    14:00 0°C° 0 mm 1 mps 762 mmHg 92%
    15:00 0°C° 0 mm 1 mps 762 mmHg 93%
    16:00 -1°C° 0 mm 1 mps 762 mmHg 94%
    17:00 -1°C° 0 mm 1 mps 761 mmHg 94%
    18:00 -2°C° 0 mm 1 mps 761 mmHg 95%
    19:00 -2°C° 0 mm 1 mps 761 mmHg 95%
    20:00 -2°C° 0 mm 1 mps 761 mmHg 95%
    21:00 -2°C° 0 mm 1 mps 761 mmHg 95%
    22:00 -2°C° 0 mm 1 mps 760 mmHg 94%
    23:00 -4°C° 0 mm 2 mps 760 mmHg 94%
    Show more